Year,Month,Day,Hour,Minute,Value (Times are PST for temperature in C)
2015,10,01,00,00,9.70
2015,10,01,00,01,9.70
2015,10,01,00,02,9.70
2015,10,01,00,03,9.70
2015,10,01,00,04,9.70
2015,10,01,00,05,9.70
2015,10,01,00,06,9.70
2015,10,01,00,07,9.70
2015,10,01,00,08,9.70
2015,10,01,00,09,9.60
2015,10,01,00,10,9.60
2015,10,01,00,11,9.60
2015,10,01,00,12,9.60
2015,10,01,00,13,9.60
2015,10,01,00,14,9.60
2015,10,01,00,15,9.60
2015,10,01,00,16,9.60
2015,10,01,00,17,9.60
2015,10,01,00,18,9.60
2015,10,01,00,19,9.60
2015,10,01,00,20,9.60
2015,10,01,00,21,9.60
2015,10,01,00,22,9.60
2015,10,01,00,23,9.50
2015,10,01,00,24,9.50
2015,10,01,00,25,9.50
2015,10,01,00,26,9.60
2015,10,01,00,27,9.60
2015,10,01,00,28,9.60
2015,10,01,00,29,9.60
2015,10,01,00,30,9.60
2015,10,01,00,31,9.60
2015,10,01,00,32,9.60
2015,10,01,00,33,9.50
2015,10,01,00,34,9.50
2015,10,01,00,35,9.50
2015,10,01,00,36,9.50
2015,10,01,00,37,9.50
2015,10,01,00,38,9.50
2015,10,01,00,39,9.50
2015,10,01,00,40,9.50
2015,10,01,00,41,9.50
2015,10,01,00,42,9.50
2015,10,01,00,43,9.50
2015,10,01,00,44,9.50
2015,10,01,00,45,9.50
2015,10,01,00,46,9.40
2015,10,01,00,47,9.40
2015,10,01,00,48,9.40
2015,10,01,00,49,9.40
2015,10,01,00,50,9.40
2015,10,01,00,51,9.40
2015,10,01,00,52,9.40
2015,10,01,00,53,9.40
2015,10,01,00,54,9.40
2015,10,01,00,55,9.40
2015,10,01,00,56,9.40
2015,10,01,00,57,9.40
2015,10,01,00,58,9.40
2015,10,01,00,59,9.40
2015,10,01,01,00,9.40
2015,10,01,01,01,9.40
2015,10,01,01,02,9.30
2015,10,01,01,03,9.30
2015,10,01,01,04,9.30
2015,10,01,01,05,9.30
2015,10,01,01,06,9.30
2015,10,01,01,07,9.30
2015,10,01,01,08,9.30
2015,10,01,01,09,9.30
2015,10,01,01,10,9.30
2015,10,01,01,11,9.30
2015,10,01,01,12,9.30
2015,10,01,01,13,9.30
2015,10,01,01,14,9.30
2015,10,01,01,15,9.30
2015,10,01,01,16,9.30
2015,10,01,01,17,9.30
2015,10,01,01,18,9.30
2015,10,01,01,19,9.20
2015,10,01,01,20,9.20
2015,10,01,01,21,9.20
2015,10,01,01,22,9.20
2015,10,01,01,23,9.20
2015,10,01,01,24,9.20
2015,10,01,01,25,9.30
2015,10,01,01,26,9.30
2015,10,01,01,27,9.30
2015,10,01,01,28,9.30
2015,10,01,01,29,9.20
2015,10,01,01,30,9.30
2015,10,01,01,31,9.30
2015,10,01,01,32,9.30
2015,10,01,01,33,9.20
2015,10,01,01,34,9.20
2015,10,01,01,35,9.20
2015,10,01,01,36,9.20
2015,10,01,01,37,9.20
2015,10,01,01,38,9.20
2015,10,01,01,39,9.20
2015,10,01,01,40,9.20
2015,10,01,01,41,9.20
2015,10,01,01,42,9.20
2015,10,01,01,43,9.20
2015,10,01,01,44,9.20
2015,10,01,01,45,9.20
2015,10,01,01,46,9.20
2015,10,01,01,47,9.10
2015,10,01,01,48,9.10
2015,10,01,01,49,9.10
2015,10,01,01,50,9.10
2015,10,01,01,51,9.10
2015,10,01,01,52,9.10
2015,10,01,01,53,9.10
2015,10,01,01,54,9.10
2015,10,01,01,55,9.10
2015,10,01,01,56,9.10
2015,10,01,01,57,9.10
2015,10,01,01,58,9.10
2015,10,01,01,59,9.10
2015,10,01,02,00,9.10
2015,10,01,02,01,9.10
2015,10,01,02,02,9.10
2015,10,01,02,03,9.10
2015,10,01,02,04,9.10
2015,10,01,02,05,9.10
2015,10,01,02,06,9.10
2015,10,01,02,07,9.10
2015,10,01,02,08,9.00
2015,10,01,02,09,9.00
2015,10,01,02,10,9.00
2015,10,01,02,11,9.00
2015,10,01,02,12,9.00
2015,10,01,02,13,9.00
2015,10,01,02,14,8.90
2015,10,01,02,15,8.90
2015,10,01,02,16,8.90
2015,10,01,02,17,8.90
2015,10,01,02,18,8.90
2015,10,01,02,19,8.90
2015,10,01,02,20,8.90
2015,10,01,02,21,8.90
2015,10,01,02,22,8.90
2015,10,01,02,23,8.90
2015,10,01,02,24,8.90
2015,10,01,02,25,8.90
2015,10,01,02,26,8.90
2015,10,01,02,27,8.80
2015,10,01,02,28,8.80
2015,10,01,02,29,8.80
2015,10,01,02,30,8.80
2015,10,01,02,31,8.80
2015,10,01,02,32,8.80
2015,10,01,02,33,8.80
2015,10,01,02,34,8.70
2015,10,01,02,35,8.70
2015,10,01,02,36,8.70
2015,10,01,02,37,8.70
2015,10,01,02,38,8.70
2015,10,01,02,39,8.70
2015,10,01,02,40,8.70
2015,10,01,02,41,8.70
2015,10,01,02,42,8.60
2015,10,01,02,43,8.60
2015,10,01,02,44,8.60
2015,10,01,02,45,8.60
2015,10,01,02,46,8.60
2015,10,01,02,47,8.60
2015,10,01,02,48,8.60
2015,10,01,02,49,8.60
2015,10,01,02,50,8.60
2015,10,01,02,51,8.60
2015,10,01,02,52,8.60
2015,10,01,02,53,8.60
2015,10,01,02,54,8.60
2015,10,01,02,55,8.60
2015,10,01,02,56,8.60
2015,10,01,02,57,8.50
2015,10,01,02,58,8.50
2015,10,01,02,59,8.50
2015,10,01,03,00,8.50
2015,10,01,03,01,8.50
2015,10,01,03,02,8.50
2015,10,01,03,03,8.50
2015,10,01,03,04,8.50
2015,10,01,03,05,8.50
2015,10,01,03,06,8.50
2015,10,01,03,07,8.50
2015,10,01,03,08,8.50
2015,10,01,03,09,8.50
2015,10,01,03,10,8.50
2015,10,01,03,11,8.50
2015,10,01,03,12,8.50
2015,10,01,03,13,8.50
2015,10,01,03,14,8.50
2015,10,01,03,15,8.50
2015,10,01,03,16,8.50
2015,10,01,03,17,8.50
2015,10,01,03,18,8.50
2015,10,01,03,19,8.50
2015,10,01,03,20,8.60
2015,10,01,03,21,8.60
2015,10,01,03,22,8.60
2015,10,01,03,23,8.60
2015,10,01,03,24,8.60
2015,10,01,03,25,8.60
2015,10,01,03,26,8.60
2015,10,01,03,27,8.60
2015,10,01,03,28,8.60
2015,10,01,03,29,8.60
2015,10,01,03,30,8.60
2015,10,01,03,31,8.60
2015,10,01,03,32,8.60
2015,10,01,03,33,8.60
2015,10,01,03,34,8.60
2015,10,01,03,35,8.60
2015,10,01,03,36,8.60
2015,10,01,03,37,8.60
2015,10,01,03,38,8.60
2015,10,01,03,39,8.60
2015,10,01,03,40,8.60
2015,10,01,03,41,8.60
2015,10,01,03,42,8.60
2015,10,01,03,43,8.70
2015,10,01,03,44,8.70
2015,10,01,03,45,8.70
2015,10,01,03,46,8.70
2015,10,01,03,47,8.70
2015,10,01,03,48,8.70
2015,10,01,03,49,8.70
2015,10,01,03,50,8.70
2015,10,01,03,51,8.70
2015,10,01,03,52,8.70
2015,10,01,03,53,8.80
2015,10,01,03,54,8.80
2015,10,01,03,55,8.80
2015,10,01,03,56,8.80
2015,10,01,03,57,8.80
2015,10,01,03,58,8.80
2015,10,01,03,59,8.80
2015,10,01,04,00,8.80
2015,10,01,04,01,8.80
2015,10,01,04,02,8.80
2015,10,01,04,03,8.80
2015,10,01,04,04,8.80
2015,10,01,04,05,8.80
2015,10,01,04,06,8.80
2015,10,01,04,07,8.90
2015,10,01,04,08,8.90
2015,10,01,04,09,8.90
2015,10,01,04,10,8.90
2015,10,01,04,11,8.90
2015,10,01,04,12,8.90
2015,10,01,04,13,8.90
2015,10,01,04,14,8.90
2015,10,01,04,15,8.90
2015,10,01,04,16,8.90
2015,10,01,04,17,9.00
2015,10,01,04,18,9.00
2015,10,01,04,19,9.00
2015,10,01,04,20,9.00
2015,10,01,04,21,9.00
2015,10,01,04,22,9.10
2015,10,01,04,23,9.10
2015,10,01,04,24,9.10
2015,10,01,04,25,9.10
2015,10,01,04,26,9.10
2015,10,01,04,27,9.10
2015,10,01,04,28,9.10
2015,10,01,04,29,9.10
2015,10,01,04,30,9.20
2015,10,01,04,31,9.20
2015,10,01,04,32,9.20
2015,10,01,04,33,9.20
2015,10,01,04,34,9.20
2015,10,01,04,35,9.20
2015,10,01,04,36,9.20
2015,10,01,04,37,9.20
2015,10,01,04,38,9.30
2015,10,01,04,39,9.30
2015,10,01,04,40,9.30
2015,10,01,04,41,9.30
2015,10,01,04,42,9.30
2015,10,01,04,43,9.30
2015,10,01,04,44,9.30
2015,10,01,04,45,9.40
2015,10,01,04,46,9.40
2015,10,01,04,47,9.40
2015,10,01,04,48,9.40
2015,10,01,04,49,9.40
2015,10,01,04,50,9.40
2015,10,01,04,51,9.40
2015,10,01,04,52,9.50
2015,10,01,04,53,9.50
2015,10,01,04,54,9.50
2015,10,01,04,55,9.60
2015,10,01,04,56,9.60
2015,10,01,04,57,9.60
2015,10,01,04,58,9.60
2015,10,01,04,59,9.60
2015,10,01,05,00,9.60
2015,10,01,05,01,9.60
2015,10,01,05,02,9.60
2015,10,01,05,03,9.60
2015,10,01,05,04,9.60
2015,10,01,05,05,9.60
2015,10,01,05,06,9.70
2015,10,01,05,07,9.70
2015,10,01,05,08,9.70
2015,10,01,05,09,9.70
2015,10,01,05,10,9.70
2015,10,01,05,11,9.70
2015,10,01,05,12,9.70
2015,10,01,05,13,9.70
2015,10,01,05,14,9.70
2015,10,01,05,15,9.70
2015,10,01,05,16,9.80
2015,10,01,05,17,9.80
2015,10,01,05,18,9.80
2015,10,01,05,19,9.80
2015,10,01,05,20,9.80
2015,10,01,05,21,9.80
2015,10,01,05,22,9.80
2015,10,01,05,23,9.80
2015,10,01,05,24,9.80
2015,10,01,05,25,9.80
2015,10,01,05,26,9.80
2015,10,01,05,27,9.80
2015,10,01,05,28,9.80
2015,10,01,05,29,9.80
2015,10,01,05,30,9.80
2015,10,01,05,31,9.90
2015,10,01,05,32,9.90
2015,10,01,05,33,9.90
2015,10,01,05,34,9.90
2015,10,01,05,35,9.90
2015,10,01,05,36,9.90
2015,10,01,05,37,9.90
2015,10,01,05,38,9.90
2015,10,01,05,39,9.90
2015,10,01,05,40,9.90
2015,10,01,05,41,9.90
2015,10,01,05,42,9.90
2015,10,01,05,43,9.90
2015,10,01,05,44,9.90
2015,10,01,05,45,9.90
2015,10,01,05,46,9.90
2015,10,01,05,47,9.90
2015,10,01,05,48,9.90
2015,10,01,05,49,9.80
2015,10,01,05,50,9.80
2015,10,01,05,51,9.80
2015,10,01,05,52,9.80
2015,10,01,05,53,9.80
2015,10,01,05,54,9.80
2015,10,01,05,55,9.80
2015,10,01,05,56,9.80
2015,10,01,05,57,9.80
2015,10,01,05,58,9.80
2015,10,01,05,59,9.80
2015,10,01,06,00,9.80
2015,10,01,06,01,9.80
2015,10,01,06,02,9.80
2015,10,01,06,03,9.80
2015,10,01,06,04,9.80
2015,10,01,06,05,9.80
2015,10,01,06,06,9.80
2015,10,01,06,07,9.80
2015,10,01,06,08,9.80
2015,10,01,06,09,9.80
2015,10,01,06,10,9.80
2015,10,01,06,11,9.80
2015,10,01,06,12,9.80
2015,10,01,06,13,9.80
2015,10,01,06,14,9.80
2015,10,01,06,15,9.80
2015,10,01,06,16,9.80
2015,10,01,06,17,9.80
2015,10,01,06,18,9.80
2015,10,01,06,19,9.80
2015,10,01,06,20,9.80
2015,10,01,06,21,9.80
2015,10,01,06,22,9.80
2015,10,01,06,23,9.80
2015,10,01,06,24,9.80
2015,10,01,06,25,9.80
2015,10,01,06,26,9.80
2015,10,01,06,27,9.80
2015,10,01,06,28,9.80
2015,10,01,06,29,9.80
2015,10,01,06,30,9.80
2015,10,01,06,31,9.80
2015,10,01,06,32,9.80
2015,10,01,06,33,9.80
2015,10,01,06,34,9.80
2015,10,01,06,35,9.80
2015,10,01,06,36,9.80
2015,10,01,06,37,9.80
2015,10,01,06,38,9.80
2015,10,01,06,39,9.80
2015,10,01,06,40,9.70
2015,10,01,06,41,9.70
2015,10,01,06,42,9.80
2015,10,01,06,43,9.70
2015,10,01,06,44,9.70
2015,10,01,06,45,9.80
2015,10,01,06,46,9.80
2015,10,01,06,47,9.70
2015,10,01,06,48,9.80
2015,10,01,06,49,9.80
2015,10,01,06,50,9.80
2015,10,01,06,51,9.80
2015,10,01,06,52,9.80
2015,10,01,06,53,9.80
2015,10,01,06,54,9.80
2015,10,01,06,55,9.80
2015,10,01,06,56,9.80
2015,10,01,06,57,9.80
2015,10,01,06,58,9.80
2015,10,01,06,59,9.80
2015,10,01,07,00,9.80
2015,10,01,07,01,9.70
2015,10,01,07,02,9.70
2015,10,01,07,03,9.80
2015,10,01,07,04,9.70
2015,10,01,07,05,9.70
2015,10,01,07,06,9.70
2015,10,01,07,07,9.70
2015,10,01,07,08,9.70
2015,10,01,07,09,9.70
2015,10,01,07,10,9.70
2015,10,01,07,11,9.70
2015,10,01,07,12,9.70
2015,10,01,07,13,9.70
2015,10,01,07,14,9.70
2015,10,01,07,15,9.70
2015,10,01,07,16,9.70
2015,10,01,07,17,9.70
2015,10,01,07,18,9.70
2015,10,01,07,19,9.70
2015,10,01,07,20,9.70
2015,10,01,07,21,9.70
2015,10,01,07,22,9.80
2015,10,01,07,23,9.80
2015,10,01,07,24,9.80
2015,10,01,07,25,9.80
2015,10,01,07,26,9.80
2015,10,01,07,27,9.80
2015,10,01,07,28,9.80
2015,10,01,07,29,9.80
2015,10,01,07,30,9.80
2015,10,01,07,31,9.80
2015,10,01,07,32,9.80
2015,10,01,07,33,9.80
2015,10,01,07,34,9.80
2015,10,01,07,35,9.80
2015,10,01,07,36,9.80
2015,10,01,07,37,9.80
2015,10,01,07,38,9.80
2015,10,01,07,39,9.80
2015,10,01,07,40,9.80
2015,10,01,07,41,9.90
2015,10,01,07,42,9.90
2015,10,01,07,43,9.90
2015,10,01,07,44,9.90
2015,10,01,07,45,9.90
2015,10,01,07,46,9.90
2015,10,01,07,47,9.90
2015,10,01,07,48,9.90
2015,10,01,07,49,9.90
2015,10,01,07,50,9.90
2015,10,01,07,51,9.90
2015,10,01,07,52,9.90
2015,10,01,07,53,9.90
2015,10,01,07,54,9.90
2015,10,01,07,55,9.90
2015,10,01,07,56,9.90
2015,10,01,07,57,9.90
2015,10,01,07,58,9.90
2015,10,01,07,59,9.90
2015,10,01,08,00,10.00
2015,10,01,08,01,10.00
2015,10,01,08,02,10.00
2015,10,01,08,03,10.00
2015,10,01,08,04,10.00
2015,10,01,08,05,10.00
2015,10,01,08,06,10.00
2015,10,01,08,07,10.00
2015,10,01,08,08,10.00
2015,10,01,08,09,10.10
2015,10,01,08,10,10.10
2015,10,01,08,11,10.10
2015,10,01,08,12,10.10
2015,10,01,08,13,10.10
2015,10,01,08,14,10.10
2015,10,01,08,15,10.10
2015,10,01,08,16,10.20
2015,10,01,08,17,10.20
2015,10,01,08,18,10.20
2015,10,01,08,19,10.20
2015,10,01,08,20,10.20
2015,10,01,08,21,10.20
2015,10,01,08,22,10.20
2015,10,01,08,23,10.20
2015,10,01,08,24,10.20
2015,10,01,08,25,10.20
2015,10,01,08,26,10.30
2015,10,01,08,27,10.30
2015,10,01,08,28,10.30
2015,10,01,08,29,10.30
2015,10,01,08,30,10.30
2015,10,01,08,31,10.30
2015,10,01,08,32,10.30
2015,10,01,08,33,10.30
2015,10,01,08,34,10.30
2015,10,01,08,35,10.30
2015,10,01,08,36,10.30
2015,10,01,08,37,10.30
2015,10,01,08,38,10.40
2015,10,01,08,39,10.40
2015,10,01,08,40,10.40
2015,10,01,08,41,10.40
2015,10,01,08,42,10.40
2015,10,01,08,43,10.40
2015,10,01,08,44,10.40
2015,10,01,08,45,10.50
2015,10,01,08,46,10.50
2015,10,01,08,47,10.50
2015,10,01,08,48,10.50
2015,10,01,08,49,10.50
2015,10,01,08,50,10.50
2015,10,01,08,51,10.50
2015,10,01,08,52,10.50
2015,10,01,08,53,10.60
2015,10,01,08,54,10.60
2015,10,01,08,55,10.60
2015,10,01,08,56,10.60
2015,10,01,08,57,10.60
2015,10,01,08,58,10.60
2015,10,01,08,59,10.60
2015,10,01,09,00,10.60
2015,10,01,09,01,10.60
2015,10,01,09,02,10.60
2015,10,01,09,03,10.60
2015,10,01,09,04,10.60
2015,10,01,09,05,10.60
2015,10,01,09,06,10.60
2015,10,01,09,07,10.70
2015,10,01,09,08,10.70
2015,10,01,09,09,10.70
2015,10,01,09,10,10.70
2015,10,01,09,11,10.70
2015,10,01,09,12,10.70
2015,10,01,09,13,10.70
2015,10,01,09,14,10.70
2015,10,01,09,15,10.80
2015,10,01,09,16,10.80
2015,10,01,09,17,10.80
2015,10,01,09,18,10.80
2015,10,01,09,19,10.80
2015,10,01,09,20,10.80
2015,10,01,09,21,10.80
2015,10,01,09,22,10.80
2015,10,01,09,23,10.90
2015,10,01,09,24,10.90
2015,10,01,09,25,10.90
2015,10,01,09,26,10.90
2015,10,01,09,27,10.90
2015,10,01,09,28,11.00
2015,10,01,09,29,11.00
2015,10,01,09,30,11.10
2015,10,01,09,31,11.10
2015,10,01,09,32,11.10
2015,10,01,09,33,11.10
2015,10,01,09,34,11.10
2015,10,01,09,35,11.10
2015,10,01,09,36,11.20
2015,10,01,09,37,11.10
2015,10,01,09,38,11.10
2015,10,01,09,39,11.10
2015,10,01,09,40,11.10
2015,10,01,09,41,11.20
2015,10,01,09,42,11.20
2015,10,01,09,43,11.20
2015,10,01,09,44,11.20
2015,10,01,09,45,11.20
2015,10,01,09,46,11.30
2015,10,01,09,47,11.30
2015,10,01,09,48,11.30
2015,10,01,09,49,11.30
2015,10,01,09,50,11.30
2015,10,01,09,51,11.30
2015,10,01,09,52,11.30
2015,10,01,09,53,11.30
2015,10,01,09,54,11.30
2015,10,01,09,55,11.30
2015,10,01,09,56,11.30
2015,10,01,09,57,11.40
2015,10,01,09,58,11.40
2015,10,01,09,59,11.40
2015,10,01,10,00,11.40
2015,10,01,10,01,11.40
2015,10,01,10,02,11.40
2015,10,01,10,03,11.40
2015,10,01,10,04,11.40
2015,10,01,10,05,11.40
2015,10,01,10,06,11.50
2015,10,01,10,07,11.50
2015,10,01,10,08,11.50
2015,10,01,10,09,11.50
2015,10,01,10,10,11.50
2015,10,01,10,11,11.50
2015,10,01,10,12,11.50
2015,10,01,10,13,11.50
2015,10,01,10,14,11.40
2015,10,01,10,15,11.40
2015,10,01,10,16,11.40
2015,10,01,10,17,11.40
2015,10,01,10,18,11.40
2015,10,01,10,19,11.50
2015,10,01,10,20,11.50
2015,10,01,10,21,11.50
2015,10,01,10,22,11.60
2015,10,01,10,23,11.60
2015,10,01,10,24,11.60
2015,10,01,10,25,11.70
2015,10,01,10,26,11.70
2015,10,01,10,27,11.70
2015,10,01,10,28,11.80
2015,10,01,10,29,11.80
2015,10,01,10,30,11.80
2015,10,01,10,31,11.90
2015,10,01,10,32,11.90
2015,10,01,10,33,11.90
2015,10,01,10,34,11.90
2015,10,01,10,35,11.90
2015,10,01,10,36,11.80
2015,10,01,10,37,11.80
2015,10,01,10,38,11.80
2015,10,01,10,39,11.80
2015,10,01,10,40,11.80
2015,10,01,10,41,11.80
2015,10,01,10,42,11.80
2015,10,01,10,43,11.80
2015,10,01,10,44,11.80
2015,10,01,10,45,11.80
2015,10,01,10,46,11.90
2015,10,01,10,47,11.90
2015,10,01,10,48,11.90
2015,10,01,10,49,12.00
2015,10,01,10,50,12.00
2015,10,01,10,51,12.00
2015,10,01,10,52,12.10
2015,10,01,10,53,12.10
2015,10,01,10,54,12.20
2015,10,01,10,55,12.30
2015,10,01,10,56,12.30
2015,10,01,10,57,12.40
2015,10,01,10,58,12.50
2015,10,01,10,59,12.50
2015,10,01,11,00,12.60
2015,10,01,11,01,12.70
2015,10,01,11,02,12.70
2015,10,01,11,03,12.80
2015,10,01,11,04,12.90
2015,10,01,11,05,12.90
2015,10,01,11,06,13.00
2015,10,01,11,07,13.00
2015,10,01,11,08,13.10
2015,10,01,11,09,13.20
2015,10,01,11,10,13.30
2015,10,01,11,11,13.40
2015,10,01,11,12,13.50
2015,10,01,11,13,13.60
2015,10,01,11,14,13.60
2015,10,01,11,15,13.60
2015,10,01,11,16,13.60
2015,10,01,11,17,13.60
2015,10,01,11,18,13.70
2015,10,01,11,19,13.70
2015,10,01,11,20,13.80
2015,10,01,11,21,13.80
2015,10,01,11,22,13.90
2015,10,01,11,23,13.90
2015,10,01,11,24,14.00
2015,10,01,11,25,14.10
2015,10,01,11,26,14.20
2015,10,01,11,27,14.30
2015,10,01,11,28,14.30
2015,10,01,11,29,14.30
2015,10,01,11,30,14.30
2015,10,01,11,31,14.40
2015,10,01,11,32,14.50
2015,10,01,11,33,14.50
2015,10,01,11,34,14.60
2015,10,01,11,35,14.70
2015,10,01,11,36,14.70
2015,10,01,11,37,14.70
2015,10,01,11,38,14.80
2015,10,01,11,39,14.90
2015,10,01,11,40,15.00
2015,10,01,11,41,15.00
2015,10,01,11,42,15.00
2015,10,01,11,43,15.10
2015,10,01,11,44,15.20
2015,10,01,11,45,15.20
2015,10,01,11,46,15.30
2015,10,01,11,47,15.30
2015,10,01,11,48,15.40
2015,10,01,11,49,15.40
2015,10,01,11,50,15.50
2015,10,01,11,51,15.50
2015,10,01,11,52,15.60
2015,10,01,11,53,15.70
2015,10,01,11,54,15.80
2015,10,01,11,55,15.80
2015,10,01,11,56,15.90
2015,10,01,11,57,15.90
2015,10,01,11,58,16.00
2015,10,01,11,59,16.00
2015,10,01,12,00,16.10
2015,10,01,12,01,16.10
2015,10,01,12,02,16.30
2015,10,01,12,03,16.40
2015,10,01,12,04,16.40
2015,10,01,12,05,16.50
2015,10,01,12,06,16.60
2015,10,01,12,07,16.70
2015,10,01,12,08,16.80
2015,10,01,12,09,16.80
2015,10,01,12,10,16.90
2015,10,01,12,11,17.00
2015,10,01,12,12,17.00
2015,10,01,12,13,17.10
2015,10,01,12,14,17.10
2015,10,01,12,15,17.10
2015,10,01,12,16,17.20
2015,10,01,12,17,17.30
2015,10,01,12,18,17.30
2015,10,01,12,19,17.40
2015,10,01,12,20,17.40
2015,10,01,12,21,17.50
2015,10,01,12,22,17.60
2015,10,01,12,23,17.60
2015,10,01,12,24,17.60
2015,10,01,12,25,17.50
2015,10,01,12,26,17.60
2015,10,01,12,27,17.60
2015,10,01,12,28,17.60
2015,10,01,12,29,17.60
2015,10,01,12,30,17.60
2015,10,01,12,31,17.70
2015,10,01,12,32,17.70
2015,10,01,12,33,17.70
2015,10,01,12,34,17.70
2015,10,01,12,35,17.80
2015,10,01,12,36,17.80
2015,10,01,12,37,17.80
2015,10,01,12,38,17.90
2015,10,01,12,39,17.90
2015,10,01,12,40,17.90
2015,10,01,12,41,18.00
2015,10,01,12,42,18.00
2015,10,01,12,43,18.00
2015,10,01,12,44,18.00
2015,10,01,12,45,18.00
2015,10,01,12,46,18.00
2015,10,01,12,47,18.00
2015,10,01,12,48,18.10
2015,10,01,12,49,18.10
2015,10,01,12,50,18.10
2015,10,01,12,51,18.10
2015,10,01,12,52,18.20
2015,10,01,12,53,18.20
2015,10,01,12,54,18.30
2015,10,01,12,55,18.40
2015,10,01,12,56,18.50
2015,10,01,12,57,18.60
2015,10,01,12,58,18.70
2015,10,01,12,59,18.80
2015,10,01,13,00,18.90
2015,10,01,13,01,19.00
2015,10,01,13,02,19.20
2015,10,01,13,03,19.30
2015,10,01,13,04,19.40
2015,10,01,13,05,19.50
2015,10,01,13,06,19.60
2015,10,01,13,07,19.70
2015,10,01,13,08,19.70
2015,10,01,13,09,19.70
2015,10,01,13,10,19.70
2015,10,01,13,11,19.70
2015,10,01,13,12,19.70
2015,10,01,13,13,19.70
2015,10,01,13,14,19.60
2015,10,01,13,15,19.60
2015,10,01,13,16,19.60
2015,10,01,13,17,19.60
2015,10,01,13,18,19.60
2015,10,01,13,19,19.60
2015,10,01,13,20,19.60
2015,10,01,13,21,19.70
2015,10,01,13,22,19.80
2015,10,01,13,23,19.90
2015,10,01,13,24,19.90
2015,10,01,13,25,20.00
2015,10,01,13,26,20.10
2015,10,01,13,27,20.10
2015,10,01,13,28,20.20
2015,10,01,13,29,20.20
2015,10,01,13,30,20.20
2015,10,01,13,31,20.30
2015,10,01,13,32,20.30
2015,10,01,13,33,20.40
2015,10,01,13,34,20.40
2015,10,01,13,35,20.40
2015,10,01,13,36,20.50
2015,10,01,13,37,20.60
2015,10,01,13,38,20.60
2015,10,01,13,39,20.70
2015,10,01,13,40,20.80
2015,10,01,13,41,20.80
2015,10,01,13,42,20.90
2015,10,01,13,43,21.00
2015,10,01,13,44,21.10
2015,10,01,13,45,21.20
2015,10,01,13,46,21.40
2015,10,01,13,47,21.50
2015,10,01,13,48,21.50
2015,10,01,13,49,21.60
2015,10,01,13,50,21.60
2015,10,01,13,51,21.60
2015,10,01,13,52,21.60
2015,10,01,13,53,21.60
2015,10,01,13,54,21.50
2015,10,01,13,55,21.60
2015,10,01,13,56,21.60
2015,10,01,13,57,21.70
2015,10,01,13,58,21.70
2015,10,01,13,59,21.80
2015,10,01,14,00,21.80
2015,10,01,14,01,21.80
2015,10,01,14,02,21.80
2015,10,01,14,03,21.70
2015,10,01,14,04,21.70
2015,10,01,14,05,21.60
2015,10,01,14,06,21.60
2015,10,01,14,07,21.60
2015,10,01,14,08,21.60
2015,10,01,14,09,21.60
2015,10,01,14,10,21.60
2015,10,01,14,11,21.60
2015,10,01,14,12,21.60
2015,10,01,14,13,21.70
2015,10,01,14,14,21.70
2015,10,01,14,15,21.70
2015,10,01,14,16,21.70
2015,10,01,14,17,21.70
2015,10,01,14,18,21.60
2015,10,01,14,19,21.50
2015,10,01,14,20,21.50
2015,10,01,14,21,21.50
2015,10,01,14,22,21.60
2015,10,01,14,23,21.60
2015,10,01,14,24,21.70
2015,10,01,14,25,21.80
2015,10,01,14,26,21.80
2015,10,01,14,27,22.00
2015,10,01,14,28,22.10
2015,10,01,14,29,22.20
2015,10,01,14,30,22.30
2015,10,01,14,31,22.30
2015,10,01,14,32,22.30
2015,10,01,14,33,22.30
2015,10,01,14,34,22.40
2015,10,01,14,35,22.40
2015,10,01,14,36,22.50
2015,10,01,14,37,22.50
2015,10,01,14,38,22.60
2015,10,01,14,39,22.60
2015,10,01,14,40,22.70
2015,10,01,14,41,22.70
2015,10,01,14,42,22.80
2015,10,01,14,43,22.70
2015,10,01,14,44,22.70
2015,10,01,14,45,22.60
2015,10,01,14,46,22.50
2015,10,01,14,47,22.40
2015,10,01,14,48,22.30
2015,10,01,14,49,22.20
2015,10,01,14,50,22.20
2015,10,01,14,51,22.10
2015,10,01,14,52,22.10
2015,10,01,14,53,22.10
2015,10,01,14,54,22.10
2015,10,01,14,55,22.00
2015,10,01,14,56,22.10
2015,10,01,14,57,22.10
2015,10,01,14,58,22.20
2015,10,01,14,59,22.20
2015,10,01,15,00,22.30
2015,10,01,15,01,22.40
2015,10,01,15,02,22.50
2015,10,01,15,03,22.60
2015,10,01,15,04,22.60
2015,10,01,15,05,22.70
2015,10,01,15,06,22.80
2015,10,01,15,07,22.80
2015,10,01,15,08,22.90
2015,10,01,15,09,22.90
2015,10,01,15,10,22.90
2015,10,01,15,11,22.90
2015,10,01,15,12,22.90
2015,10,01,15,13,23.00
2015,10,01,15,14,23.00
2015,10,01,15,15,23.10
2015,10,01,15,16,23.10
2015,10,01,15,17,23.20
2015,10,01,15,18,23.20
2015,10,01,15,19,23.30
2015,10,01,15,20,23.30
2015,10,01,15,21,23.30
2015,10,01,15,22,23.30
2015,10,01,15,23,23.40
2015,10,01,15,24,23.40
2015,10,01,15,25,23.50
2015,10,01,15,26,23.60
2015,10,01,15,27,23.60
2015,10,01,15,28,23.70
2015,10,01,15,29,23.80
2015,10,01,15,30,23.80
2015,10,01,15,31,23.80
2015,10,01,15,32,23.80
2015,10,01,15,33,23.80
2015,10,01,15,34,23.80
2015,10,01,15,35,23.80
2015,10,01,15,36,23.80
2015,10,01,15,37,23.80
2015,10,01,15,38,23.80
2015,10,01,15,39,23.70
2015,10,01,15,40,23.70
2015,10,01,15,41,23.60
2015,10,01,15,42,23.50
2015,10,01,15,43,23.40
2015,10,01,15,44,23.30
2015,10,01,15,45,23.30
2015,10,01,15,46,23.30
2015,10,01,15,47,23.20
2015,10,01,15,48,23.20
2015,10,01,15,49,23.20
2015,10,01,15,50,23.20
2015,10,01,15,51,23.20
2015,10,01,15,52,23.20
2015,10,01,15,53,23.20
2015,10,01,15,54,23.20
2015,10,01,15,55,23.20
2015,10,01,15,56,23.20
2015,10,01,15,57,23.20
2015,10,01,15,58,23.20
2015,10,01,15,59,23.20
2015,10,01,16,00,23.20
2015,10,01,16,01,23.20
2015,10,01,16,02,23.20
2015,10,01,16,03,23.30
2015,10,01,16,04,23.30
2015,10,01,16,05,23.30
2015,10,01,16,06,23.40
2015,10,01,16,07,23.40
2015,10,01,16,08,23.40
2015,10,01,16,09,23.40
2015,10,01,16,10,23.50
2015,10,01,16,11,23.50
2015,10,01,16,12,23.50
2015,10,01,16,13,23.50
2015,10,01,16,14,23.50
2015,10,01,16,15,23.50
2015,10,01,16,16,23.50
2015,10,01,16,17,23.50
2015,10,01,16,18,23.40
2015,10,01,16,19,23.40
2015,10,01,16,20,23.30
2015,10,01,16,21,23.30
2015,10,01,16,22,23.30
2015,10,01,16,23,23.20
2015,10,01,16,24,23.20
2015,10,01,16,25,23.20
2015,10,01,16,26,23.20
2015,10,01,16,27,23.10
2015,10,01,16,28,23.10
2015,10,01,16,29,23.00
2015,10,01,16,30,22.90
2015,10,01,16,31,22.90
2015,10,01,16,32,22.80
2015,10,01,16,33,22.80
2015,10,01,16,34,22.70
2015,10,01,16,35,22.70
2015,10,01,16,36,22.60
2015,10,01,16,37,22.60
2015,10,01,16,38,22.60
2015,10,01,16,39,22.50
2015,10,01,16,40,22.50
2015,10,01,16,41,22.40
2015,10,01,16,42,22.40
2015,10,01,16,43,22.40
2015,10,01,16,44,22.40
2015,10,01,16,45,22.40
2015,10,01,16,46,22.40
2015,10,01,16,47,22.40
2015,10,01,16,48,22.40
2015,10,01,16,49,22.40
2015,10,01,16,50,22.40
2015,10,01,16,51,22.40
2015,10,01,16,52,22.40
2015,10,01,16,53,22.40
2015,10,01,16,54,22.40
2015,10,01,16,55,22.40
2015,10,01,16,56,22.30
2015,10,01,16,57,22.40
2015,10,01,16,58,22.30
2015,10,01,16,59,22.30
2015,10,01,17,00,22.30
2015,10,01,17,01,22.30
2015,10,01,17,02,22.30
2015,10,01,17,03,22.30
2015,10,01,17,04,22.30
2015,10,01,17,05,22.30
2015,10,01,17,06,22.20
2015,10,01,17,07,22.20
2015,10,01,17,08,22.20
2015,10,01,17,09,22.20
2015,10,01,17,10,22.10
2015,10,01,17,11,22.10
2015,10,01,17,12,22.10
2015,10,01,17,13,22.00
2015,10,01,17,14,22.00
2015,10,01,17,15,22.00
2015,10,01,17,16,21.90
2015,10,01,17,17,21.90
2015,10,01,17,18,21.90
2015,10,01,17,19,21.90
2015,10,01,17,20,21.80
2015,10,01,17,21,21.80
2015,10,01,17,22,21.80
2015,10,01,17,23,21.80
2015,10,01,17,24,21.80
2015,10,01,17,25,21.80
2015,10,01,17,26,21.80
2015,10,01,17,27,21.70
2015,10,01,17,28,21.70
2015,10,01,17,29,21.70
2015,10,01,17,30,21.60
2015,10,01,17,31,21.60
2015,10,01,17,32,21.60
2015,10,01,17,33,21.50
2015,10,01,17,34,21.40
2015,10,01,17,35,21.40
2015,10,01,17,36,21.40
2015,10,01,17,37,21.40
2015,10,01,17,38,21.30
2015,10,01,17,39,21.30
2015,10,01,17,40,21.30